GW3596 Weather Reports


Display with metric or nautical units.
time (UTC)temp
F
wind
direction
speed
MPH
gust
MPH
rain 1hr
in
rain 24hr
in
rain mn
in
humidity
%
barometer
mb
20260505124619 54 333 0.0 0.0 0.00 0.00 0.00 77 1017.5
20260505124116 53 332 0.0 1.0 0.00 0.00 0.00 76 1017.3
20260505123612 53 328 0.0 1.0 0.00 0.00 0.00 77 1017.5
20260505123109 52 313 0.0 1.0 0.00 0.00 0.00 79 1017.5
20260505122605 51 324 0.0 0.0 0.00 0.00 0.00 81 1017.4
20260505122102 51 321 0.0 1.0 0.00 0.00 0.00 84 1017.4
20260505121559 51 307 1.0 1.0 0.00 0.00 0.00 84 1017.5
20260505121056 50 312 1.0 1.0 0.00 0.00 0.00 84 1017.3
20260505120552 50 327 1.0 1.0 0.00 0.00 0.00 84 1017.4
20260505120048 50 330 0.0 0.0 0.00 0.00 0.00 85 1017.3
20260505115542 49 332 0.0 0.0 0.00 0.00 0.00 87 1017.5
20260505115040 49 331 0.0 0.0 0.00 0.00 0.00 86 1017.1
20260505114537 49 332 0.0 0.0 0.00 0.00 0.00 87 1017.2
20260505114033 49 324 0.0 0.0 0.00 0.00 0.00 86 1017.1
20260505113530 49 320 0.0 0.0 0.00 0.00 0.00 86 1017.0
20260505113026 49 321 0.0 0.0 0.00 0.00 0.00 87 1017.2
20260505112522 49 321 0.0 0.0 0.00 0.00 0.00 86 1017.0
20260505112020 49 323 0.0 0.0 0.00 0.00 0.00 86 1016.7
20260505111514 48 314 0.0 0.0 0.00 0.00 0.00 88 1017.0
20260505111011 48 324 0.0 0.0 0.00 0.00 0.00 89 1016.9
20260505110508 49 324 0.0 0.0 0.00 0.00 0.00 88 1016.9
20260505101939 48 318 0.0 0.0 0.00 0.00 0.00 91 1017.0
20260505101432 48 318 0.0 0.0 0.00 0.00 0.00 90 1017.0
20260505100929 48 318 0.0 0.0 0.00 0.00 0.00 90 1017.0
20260505100426 48 318 0.0 0.0 0.00 0.00 0.00 89 1016.7
20260505095921 48 318 0.0 0.0 0.00 0.00 0.00 89 1017.0
20260505095419 49 318 0.0 0.0 0.00 0.00 0.00 89 1017.0
20260505094914 48 318 0.0 0.0 0.00 0.00 0.00 88 1016.5
20260505094412 48 318 0.0 0.0 0.00 0.00 0.00 88 1016.5
20260505093908 48 318 0.0 0.0 0.00 0.00 0.00 90 1016.6
20260505093405 48 318 0.0 0.0 0.00 0.00 0.00 89 1016.7
20260505092902 49 318 0.0 0.0 0.00 0.00 0.00 89 1016.6
20260505092400 49 318 0.0 0.0 0.00 0.00 0.00 89 1016.9
20260505091857 49 318 0.0 0.0 0.00 0.00 0.00 88 1016.7
20260505091355 49 318 0.0 0.0 0.00 0.00 0.00 88 1017.0
20260505090853 49 318 0.0 0.0 0.00 0.00 0.00 90 1016.9
20260505090351 49 318 0.0 0.0 0.00 0.00 0.00 91 1017.1
20260505085848 49 318 0.0 0.0 0.00 0.00 0.00 91 1017.1
20260505085346 49 318 0.0 0.0 0.00 0.00 0.00 91 1016.7
20260505084843 49 318 0.0 0.0 0.00 0.00 0.00 90 1016.7
20260505084341 50 318 0.0 0.0 0.00 0.00 0.00 89 1016.7
20260505083838 50 318 0.0 0.0 0.00 0.00 0.00 88 1016.9
20260505083336 50 318 0.0 0.0 0.00 0.00 0.00 87 1016.9
20260505082832 50 318 0.0 0.0 0.00 0.00 0.00 85 1017.1
20260505082328 50 318 0.0 0.0 0.00 0.00 0.00 85 1017.1
20260505081825 51 318 0.0 0.0 0.00 0.00 0.00 85 1016.6
20260505081322 51 318 0.0 0.0 0.00 0.00 0.00 84 1016.9
20260505080819 51 318 0.0 0.0 0.00 0.00 0.00 84 1016.9
20260505080314 51 318 0.0 0.0 0.00 0.00 0.00 83 1017.0
20260505075810 51 318 0.0 0.0 0.00 0.00 0.00 83 1016.9
20260505075307 51 318 0.0 0.0 0.00 0.00 0.00 82 1016.7
20260505074805 51 318 0.0 0.0 0.00 0.00 0.00 81 1017.1
20260505074302 51 318 0.0 0.0 0.00 0.00 0.00 80 1016.7
20260505073759 52 318 0.0 0.0 0.00 0.00 0.00 79 1016.7
20260505073257 52 318 0.0 0.0 0.00 0.00 0.00 78 1016.9
20260505072754 52 318 0.0 0.0 0.00 0.00 0.00 78 1017.0
20260505072250 53 318 0.0 0.0 0.00 0.00 0.00 77 1016.9
20260505071745 53 318 0.0 0.0 0.00 0.00 0.00 77 1017.0
20260505071242 53 318 0.0 0.0 0.00 0.00 0.00 76 1016.7
20260505070740 53 318 0.0 0.0 0.00 0.00 0.00 76 1017.1
20260505070236 53 318 0.0 0.0 0.00 0.00 0.00 78 1016.9
20260505065732 53 318 0.0 0.0 0.00 0.00 0.00 76 1016.6
20260505065229 53 318 0.0 0.0 0.00 0.00 0.00 75 1016.6
20260505064726 53 319 0.0 0.0 0.00 0.00 0.00 77 1017.0
20260505064224 53 319 0.0 0.0 0.00 0.00 0.00 78 1016.7
20260505063721 53 319 0.0 0.0 0.00 0.00 0.00 77 1016.9
20260505063217 53 317 0.0 0.0 0.00 0.00 0.00 78 1016.9
20260505062713 53 319 0.0 0.0 0.00 0.00 0.00 77 1016.7
20260505062211 53 319 0.0 0.0 0.00 0.00 0.00 77 1016.9
20260505061708 53 319 0.0 0.0 0.00 0.00 0.00 76 1016.9
20260505061206 53 319 0.0 0.0 0.00 0.00 0.00 76 1016.9
20260505060703 54 319 0.0 0.0 0.00 0.00 0.00 77 1016.7
20260505060200 54 319 0.0 0.0 0.00 0.00 0.00 76 1016.9
20260505055655 55 319 0.0 0.0 0.00 0.00 0.00 75 1016.9
20260505055152 55 319 0.0 0.0 0.00 0.00 0.00 73 1017.0
20260505054649 55 319 0.0 0.0 0.00 0.00 0.00 73 1017.1
20260505054147 55 319 0.0 0.0 0.00 0.00 0.00 72 1016.9
20260505053645 55 319 0.0 0.0 0.00 0.00 0.00 72 1017.1
20260505053141 55 321 0.0 0.0 0.00 0.00 0.00 73 1017.1
20260505052638 55 320 0.0 0.0 0.00 0.00 0.00 73 1017.1
20260505052135 55 320 0.0 0.0 0.00 0.00 0.00 73 1017.1
20260505051632 55 320 0.0 0.0 0.00 0.00 0.00 74 1017.0
20260505051130 55 321 0.0 0.0 0.00 0.00 0.00 73 1016.7
20260505050628 55 321 0.0 0.0 0.00 0.00 0.00 73 1017.0
20260505050126 55 321 0.0 0.0 0.00 0.00 0.00 74 1017.2
20260505041555 59 320 0.0 0.0 0.00 0.00 0.00 62 1017.0
20260505041053 60 320 0.0 0.0 0.00 0.00 0.00 59 1017.0
20260505040550 60 318 0.0 0.0 0.00 0.00 0.00 58 1017.1
20260505040047 58 321 0.0 0.0 0.00 0.00 0.00 67 1017.0
20260505035543 58 325 0.0 0.0 0.00 0.00 0.00 64 1017.2
20260505035040 57 318 0.0 0.0 0.00 0.00 0.00 70 1017.1
20260505034536 57 318 0.0 0.0 0.00 0.00 0.00 68 1017.2
20260505034033 57 318 0.0 0.0 0.00 0.00 0.00 69 1017.3
20260505033530 57 317 0.0 0.0 0.00 0.00 0.00 72 1017.1
20260505033029 57 317 0.0 0.0 0.00 0.00 0.00 72 1017.2
20260505032526 57 317 0.0 0.0 0.00 0.00 0.00 71 1017.1
20260505032022 57 317 0.0 0.0 0.00 0.00 0.00 71 1017.0
20260505031520 58 317 0.0 0.0 0.00 0.00 0.00 69 1017.1
20260505031016 59 318 0.0 0.0 0.00 0.00 0.00 67 1017.3
20260505030513 59 322 0.0 0.0 0.00 0.00 0.00 65 1017.0
20260505030009 59 322 0.0 0.0 0.00 0.00 0.00 65 1017.2
20260505025505 59 326 0.0 0.0 0.00 0.00 0.00 65 1017.2
20260505025004 59 320 0.0 0.0 0.00 0.00 0.00 65 1017.2
20260505024500 59 318 0.0 0.0 0.00 0.00 0.00 64 1017.1
20260505023958 60 318 0.0 0.0 0.00 0.00 0.00 63 1017.1
20260505023454 60 319 0.0 0.0 0.00 0.00 0.00 60 1017.0
20260505022952 60 330 0.0 0.0 0.00 0.00 0.00 59 1016.9
20260505022449 61 328 0.0 0.0 0.00 0.00 0.00 59 1017.1
20260505021947 61 324 0.0 0.0 0.00 0.00 0.00 58 1017.0
20260505021443 61 326 0.0 0.0 0.00 0.00 0.00 56 1017.1
20260505020939 62 318 0.0 0.0 0.00 0.00 0.00 54 1017.0
20260505020434 62 323 0.0 0.0 0.00 0.00 0.00 54 1017.1
20260505015931 62 321 0.0 0.0 0.00 0.00 0.00 53 1016.9
20260505015428 62 321 0.0 0.0 0.00 0.00 0.00 53 1016.6
20260505014926 63 321 0.0 0.0 0.00 0.00 0.00 53 1016.6
20260505014422 63 321 0.0 0.0 0.00 0.00 0.00 52 1016.6
20260505013919 63 322 0.0 0.0 0.00 0.00 0.00 52 1016.4
20260505013416 63 321 0.0 0.0 0.00 0.00 0.00 52 1016.4
20260505012914 63 320 0.0 0.0 0.00 0.00 0.00 52 1016.7
20260505012412 63 326 0.0 0.0 0.00 0.00 0.00 53 1016.6
20260505011908 63 323 0.0 1.0 0.00 0.00 0.00 53 1016.5
20260505011405 63 323 0.0 0.0 0.00 0.00 0.00 53 1016.7
20260505010901 63 320 0.0 0.0 0.00 0.00 0.00 52 1016.6
20260505010357 63 321 1.0 1.0 0.00 0.00 0.00 52 1016.4
20260505005853 63 323 0.0 0.0 0.00 0.00 0.00 54 1016.4
20260505005350 64 321 0.0 0.0 0.00 0.00 0.00 53 1016.4
20260505004848 64 325 0.0 0.0 0.00 0.00 0.00 54 1016.3
20260505004344 65 323 0.0 0.0 0.00 0.00 0.00 53 1016.3
20260505003841 66 319 0.0 0.0 0.00 0.00 0.00 50 1016.3
20260505003339 66 318 1.0 1.0 0.00 0.00 0.00 49 1016.1
20260505002834 66 268 2.0 2.0 0.00 0.00 0.00 49 1016.1
20260505002331 66 54 4.0 6.0 0.00 0.00 0.00 48 1016.1
20260505001830 66 316 1.0 1.0 0.00 0.00 0.00 52 1016.1
20260505001326 66 321 1.0 2.0 0.00 0.00 0.00 49 1016.0
20260505000824 66 283 2.0 2.0 0.00 0.00 0.00 50 1016.1
20260505000321 67 319 0.0 0.0 0.00 0.00 0.00 49 1016.2
20260504235818 67 319 1.0 2.0 0.00 0.00 0.00 49 1016.2
20260504235315 67 311 1.0 1.0 0.00 0.00 0.00 49 1015.9
20260504234811 67 312 1.0 2.0 0.00 0.00 0.00 49 1016.1
20260504234309 67 320 1.0 1.0 0.00 0.00 0.00 47 1015.6
20260504233805 66 72 3.0 5.0 0.00 0.00 0.00 47 1016.0
20260504233301 67 313 1.0 1.0 0.00 0.00 0.00 51 1015.8
20260504232758 67 339 2.0 3.0 0.00 0.00 0.00 48 1015.8
20260504232255 67 306 1.0 2.0 0.00 0.00 0.00 48 1015.8
20260504231752 68 316 2.0 2.0 0.00 0.00 0.00 47 1015.6
20260504231249 68 317 1.0 1.0 0.00 0.00 0.00 48 1015.7
20260504230744 68 321 0.0 1.0 0.00 0.00 0.00 49 1015.6
20260504230243 68 341 1.0 1.0 0.00 0.00 0.00 46 1015.8
20260504225741 68 309 1.0 1.0 0.00 0.00 0.00 47 1015.4
20260504225237 69 314 0.0 0.0 0.00 0.00 0.00 52 1015.8
20260504224735 69 305 1.0 1.0 0.00 0.00 0.00 50 1015.6
20260504224232 69 332 1.0 2.0 0.00 0.00 0.00 46 1015.8
20260504223728 69 326 2.0 2.0 0.00 0.00 0.00 45 1015.8
20260504223224 70 316 0.0 0.0 0.00 0.00 0.00 49 1015.5
20260504222721 69 344 1.0 1.0 0.00 0.00 0.00 47 1015.6
20260504222218 69 333 1.0 2.0 0.00 0.00 0.00 47 1015.7
20260504221715 70 324 1.0 1.0 0.00 0.00 0.00 46 1015.7
20260504221212 70 315 0.0 0.0 0.00 0.00 0.00 47 1015.8
20260504220708 70 26 1.0 1.0 0.00 0.00 0.00 46 1015.7
20260504220206 70 343 1.0 1.0 0.00 0.00 0.00 47 1015.5
20260504215702 70 313 1.0 1.0 0.00 0.00 0.00 47 1015.2
20260504215200 71 315 1.0 2.0 0.00 0.00 0.00 47 1015.7
20260504214655 71 320 0.0 1.0 0.00 0.00 0.00 45 1015.6
20260504214152 71 331 2.0 2.0 0.00 0.00 0.00 45 1015.5
20260504213649 71 286 0.0 1.0 0.00 0.00 0.00 45 1015.5
20260504213145 71 319 1.0 2.0 0.00 0.00 0.00 45 1015.6
20260504212642 71 315 0.0 1.0 0.00 0.00 0.00 48 1015.5
20260504212138 71 326 0.0 0.0 0.00 0.00 0.00 45 1015.6
20260504211636 71 322 0.0 0.0 0.00 0.00 0.00 45 1015.5
20260504211132 71 314 1.0 1.0 0.00 0.00 0.00 45 1015.6
20260504210630 72 3 2.0 3.0 0.00 0.00 0.00 43 1015.6
20260504210126 72 323 2.0 2.0 0.00 0.00 0.00 43 1015.4
20260504205624 72 323 0.0 0.0 0.00 0.00 0.00 43 1015.8
20260504205121 72 328 0.0 0.0 0.00 0.00 0.00 42 1015.5
20260504204620 72 330 1.0 2.0 0.00 0.00 0.00 41 1015.5
20260504204118 72 328 0.0 0.0 0.00 0.00 0.00 44 1015.6
20260504203617 72 325 0.0 0.0 0.00 0.00 0.00 41 1015.7
20260504203114 72 331 0.0 1.0 0.00 0.00 0.00 41 1015.8
20260504202609 72 335 1.0 1.0 0.00 0.00 0.00 40 1015.7
20260504202106 72 324 0.0 0.0 0.00 0.00 0.00 41 1015.8
20260504201603 72 305 0.0 1.0 0.00 0.00 0.00 42 1015.9
20260504201101 73 325 0.0 0.0 0.00 0.00 0.00 41 1015.9
20260504200556 72 331 0.0 0.0 0.00 0.00 0.00 44 1015.9
20260504200054 72 331 1.0 1.0 0.00 0.00 0.00 44 1016.0
20260504195550 73 324 0.0 1.0 0.00 0.00 0.00 45 1016.4
20260504195046 72 322 0.0 0.0 0.00 0.00 0.00 43 1016.4
20260504194543 72 326 0.0 0.0 0.00 0.00 0.00 42 1016.3
20260504194038 72 323 0.0 0.0 0.00 0.00 0.00 43 1016.3
20260504193535 72 352 2.0 2.0 0.00 0.00 0.00 42 1016.6
20260504193034 71 325 0.0 1.0 0.00 0.00 0.00 40 1016.5
20260504192532 72 318 0.0 1.0 0.00 0.00 0.00 40 1016.6
20260504192030 72 326 0.0 0.0 0.00 0.00 0.00 42 1016.9
20260504191527 71 325 0.0 0.0 0.00 0.00 0.00 41 1017.1
20260504191023 72 322 0.0 0.0 0.00 0.00 0.00 44 1016.7
20260504190519 70 331 0.0 0.0 0.00 0.00 0.00 44 1016.9
20260504190015 71 343 1.0 2.0 0.00 0.00 0.00 41 1017.2
20260504185513 71 4 3.0 3.0 0.00 0.00 0.00 42 1017.3
20260504185009 70 322 0.0 0.0 0.00 0.00 0.00 44 1017.2
20260504184509 70 318 0.0 0.0 0.00 0.00 0.00 44 1017.2
20260504184005 69 320 0.0 1.0 0.00 0.00 0.00 44 1017.3
20260504183503 70 335 0.0 1.0 0.00 0.00 0.00 43 1017.5
20260504183001 70 318 0.0 1.0 0.00 0.00 0.00 43 1017.4
20260504182457 70 324 1.0 1.0 0.00 0.00 0.00 42 1017.6
20260504181955 71 303 2.0 2.0 0.00 0.00 0.00 45 1017.7
20260504181451 72 306 1.0 1.0 0.00 0.00 0.00 42 1017.6
20260504180950 71 321 0.0 0.0 0.00 0.00 0.00 41 1017.7
20260504180449 71 315 0.0 0.0 0.00 0.00 0.00 37 1017.8
20260504175947 71 321 0.0 0.0 0.00 0.00 0.00 38 1017.8
20260504175443 71 294 2.0 2.0 0.00 0.00 0.00 35 1017.8
20260504174941 71 323 0.0 0.0 0.00 0.00 0.00 41 1017.9
20260504174438 70 316 0.0 0.0 0.00 0.00 0.00 45 1017.9
20260504173936 71 332 0.0 0.0 0.00 0.00 0.00 44 1017.8
20260504173432 72 26 3.0 3.0 0.00 0.00 0.00 42 1018.0
20260504172930 71 329 0.0 1.0 0.00 0.00 0.00 42 1018.1
20260504172425 70 315 0.0 1.0 0.00 0.00 0.00 51 1018.1
20260504171922 68 49 3.0 3.0 0.00 0.00 0.00 44 1018.2
20260504171419 68 296 2.0 2.0 0.00 0.00 0.00 50 1018.2
20260504170916 68 316 1.0 1.0 0.00 0.00 0.00 46 1018.2
20260504170413 69 335 1.0 2.0 0.00 0.00 0.00 47 1018.2
20260504160331 65 342 1.0 1.0 0.00 0.00 0.00 50 1019.3
20260504150756 62 330 0.0 0.0 0.00 0.00 0.00 52 1019.4
20260504150253 61 333 0.0 1.0 0.00 0.00 0.00 53 1020.1
20260504141223 55 344 1.0 2.0 0.00 0.00 0.00 76 1020.1
20260504140719 55 335 0.0 0.0 0.00 0.00 0.00 74 1020.0
20260504140214 55 335 0.0 0.0 0.00 0.00 0.00 74 1020.1
20260504130643 47 330 0.0 0.0 0.00 0.00 0.00 94 1020.0
20260504130139 46 330 0.0 0.0 0.00 0.00 0.00 98 1019.9